Flag for Canada Weather past 2 weeks in Trois-Rivieres, Quebec, Canada

Now
64 °F

Mild.


Feels Like: 64 °F
Forecast: 57 / 73 °F
Wind: 7 mph from Southwest

Location: Trois Rivieres

Current Time: Jul 31, 2014 at 10:23:16 PM

Latest Report: Jul 31, 2014 at 10:00 PM


Visibility: N/A

Pressure: 30.06 "Hg

Humidity: 90%

Dew point: 61 °F

Location of Trois-RivieresLocation

Historic Weather in Trois-Rivieres — Graph

°F

Trois-Rivieres temperature yesterday

Maximum temperature yesterday: 72 °F (at 6:00 PM)
Minimum temperature yesterday: 56 °F (at 5:00 AM)
Average temperature yesterday: 65 °F

Past Weeks' High & Low Weather Summary

 TemperatureHumidityPressure
High79 °F (Jul 22, 7:00 PM)99% (Jul 27, 11:00 AM)30.27 "Hg (Jul 27, 11:00 AM)
Low56 °F (Jul 24, 6:00 AM)46% (Jul 24, 1:00 PM)29.57 "Hg (Jul 27, 6:00 PM)
Average68 °F77%29.91 "Hg
* Reported Jul 16 9:00 PM — Jul 31 9:00 PM, Trois-Rivieres, Weather by CustomWeather, © 2014

Note: Actual official high and low records may vary slightly from our data, if they occured in-between our weather recording intervals... More about our weather records

Advertising

Trois-Rivieres weather history for previous 24 hours

 ConditionsComfort  
Time TempWeatherWind HumidityBarometerVisibility
9:00 PM
Jul 31
64 °FMild.7 mph89%30.04 "HgN/A
8:00 PM65 °FMild.9 mph85%30.03 "HgN/A
7:00 PM65 °FMild.9 mph82%30.01 "HgN/A
6:00 PM65 °FMild.12 mph79%30.00 "HgN/A
5:00 PM63 °FMild.10 mph87%30.00 "HgN/A
4:00 PM61 °FCool.10 mph92%29.98 "HgN/A
3:00 PM64 °FMild.6 mph82%29.96 "HgN/A
2:00 PM73 °FMild.1 mph60%29.94 "HgN/A
1:00 PM71 °FMild.2 mph67%29.98 "HgN/A
12:00 PM69 °FMild.5 mph73%30.00 "HgN/A
11:00 AM67 °FMild.3 mph77%30.01 "HgN/A
10:00 AM65 °FMild.3 mph83%30.01 "HgN/A
9:00 AM63 °FMild.3 mph92%30.01 "HgN/A
8:00 AM60 °FCool.6 mph94%30.01 "HgN/A
7:00 AM60 °FCool.6 mph92%30.01 "HgN/A
6:00 AM60 °FCool.6 mph89%29.99 "HgN/A
5:00 AM60 °FCool.3 mph88%29.98 "HgN/A
4:00 AM62 °FCool.2 mph90%29.97 "HgN/A
3:00 AM62 °FCool.5 mph91%29.97 "HgN/A
2:00 AM62 °FCool.2 mph85%29.96 "HgN/A
1:00 AM64 °FMild.2 mph81%29.96 "HgN/A
12:00 AM64 °FMild.6 mph79%29.96 "HgN/A
11:00 PM
Jul 30
67 °FMild.6 mph69%29.97 "HgN/A
10:00 PM65 °FMild.3 mph80%29.96 "HgN/A
Weather by CustomWeather, © 2014

See weather overviewHow to use our weather pages